Regional Weather Roundup
Issued by NWS

Home | Current Version | Previous Version | Graphics & Text | Print | Product List | Glossary Off
Versions: 1 2 3 4 5 6 7 8 9 10 11 12 13 14 15 16 17 18 19 20 21 22 23 24 25 26 27 28 29 30 31 32 33 34 35 36 37 38 39 40 41 42 43 44 45 46 47 48 49 50

000
ASUS43 KDMX 280907
RWRIA

WEATHER ROUNDUP FOR IOWA
NATIONAL WEATHER SERVICE DES MOINES IA
300 AM CST SAT FEB 28 2015

NOTE: "FAIR" INDICATES FEW OR NO CLOUDS BELOW 12,000 FEET WITH NO
SIGNIFICANT WEATHER AND/OR OBSTRUCTIONS TO VISIBILITY.

* - THESE STATIONS ARE NOT NWS STATIONS...THUS NOT UNDER NWS
QUALITY CONTROL.  THEY ALSO DO NOT REPORT WEATHER SUCH
AS PRECIPITATION OR FOG.

IAZ001>003-012>014-020>022-031>034-043>046-281000-
   NORTHWEST IOWA

CITY           SKY/WX    TMP DP  RH WIND       PRES   REMARKS
CARROLL *      CLEAR     -4  -9  77 S8        30.50F WCI -19
CHEROKEE *     CLEAR     -4  -6  92 CALM      30.47F
DENISON *      CLEAR      5  -2  72 S9        30.47F WCI  -9
LE MARS *      CLEAR      0  -6  78 CALM      30.46F
ORANGE CITY *  CLEAR      1  -2  85 SE3       30.42F
SHELDON *      CLEAR     -2  -8  78 SE5       30.42F WCI -12
SIOUX CITY     CLEAR      1  -4  79 E8        30.47F WCI -13
SPENCER        PTCLDY    -1  -7  75 S12       30.45F WCI -18
STORM LAKE *   CLEAR     -2  -9  71 S10       30.46F WCI -19
$$

IAZ055>058-069>071-079>083-090>094-281000-
   SOUTHWEST IOWA

CITY           SKY/WX    TMP DP  RH WIND       PRES   REMARKS
ATLANTIC *     CLEAR      1  -4  78 S3        30.51F
AUDUBON *      CLEAR     -8 -13  77 CALM      30.50F
CLARINDA *     CLEAR      9   3  78 CALM      30.54F
COUNCIL BLFS * PTCLDY     7   1  78 S8        30.47F WCI  -6
CRESTON *      CLEAR      1  -4  78 SE6       30.51F WCI -10
HARLAN  *      CLEAR      1  -2  85 CALM      30.53F
LAMONI         CLEAR      5   0  79 SE5       30.52F WCI  -4
RED OAK *      CLEAR      7   3  85 S3        30.52F
SHENANDOAH *   PTCLDY     7   1  78 CALM      30.53F
$$

IAZ047>049-059>061-072>074-084-281000-
   CENTRAL IOWA

CITY           SKY/WX    TMP DP  RH WIND       PRES   REMARKS
AMES           CLEAR     -8 -10  91 CALM      30.56F
ANKENY *       CLEAR     -4  -9  77 CALM      30.57F
CHARITON *     PTCLDY     1  -6  71 SE6       30.55F WCI -10
DES MOINES     CLEAR      4  -4  69 SE7       30.56F WCI  -8
GRINNELL*      PTCLDY    -4  -9  77 SE5       30.57F WCI -15
KNOXVILLE *    CLEAR      1  -8  66 SE8       30.56F WCI -12
MARSHALLTOWN     N/A    -11 -14  86 SE7       30.56F WCI -26
PELLA *        PTCLDY    -4  -6  92 SE5       30.59F WCI -15
PERRY *          N/A     -2  -4  92 SE3       30.54F
$$

IAZ004>006-015-016-023>025-035-036-281000-
   NORTH CENTRAL IOWA

CITY           SKY/WX    TMP DP  RH WIND       PRES   REMARKS
ALGONA *       CLEAR     -4  -8  84 S10       30.51S WCI -21
CLARION *      CLEAR     -8 -13  77 SE10      30.53S WCI -26
ESTHERVILLE    CLEAR    -10 -14  82 S10       30.46F WCI -29
FORT DODGE *   PTCLDY    -2  -9  71 CALM      30.52F
MASON CITY     PTCLDY   -14 -18  82 S7        30.53F WCI -30
FOREST CITY *  CLEAR    -11 -18  70 CALM      30.51F
IOWA FALLS *     N/A    -11 -17  77 CALM      30.54F
$$

IAZ007>011-017>019-026>030-037>042-050>054-066-281000-
   NORTHEAST IOWA

CITY           SKY/WX    TMP DP  RH WIND       PRES   REMARKS
CEDAR RAPIDS   MOCLDY   -11 -14  86 E6        30.59F WCI -25
CHARLES CITY * CLEAR     -8 -11  84 SE6       30.55F WCI -21
CLINTON *      MOCLDY   -17 -26  63 CALM      30.65F
DECORAH *      CLEAR     -6 -11  77 S5        30.55F WCI -17
DUBUQUE        MOCLDY   -11 -15  82 CALM      30.59S
MONTICELLO *   CLEAR    -22 -29  69 CALM      30.62F
OELWEIN *      CLEAR     -9 -15  77 S8        30.58S WCI -26
WATERLOO       MOCLDY   -21 -24  86 E3        30.58F
$$

IAZ064-065-067-068-078-281000-
   EAST CENTRAL IOWA

CITY           SKY/WX    TMP DP  RH WIND       PRES   REMARKS
DAVENPORT      MOCLDY    -8 -14  74 SE5       30.64F WCI -19
IOWA CITY      MOCLDY   -11 -15  82 CALM      30.65F
MT. PLEASANT * PTCLDY    -6 -11  77 E5        30.63S WCI -17
MUSCATINE *    CLEAR    -13 -17  84 CALM      30.67S HAZE
QUAD CITIES    PTCLDY   -17 -23  73 CALM      30.66F
$$

IAZ062-063-075>077-085>089-095>099-281000-
   SOUTHEAST IOWA

CITY           SKY/WX    TMP DP  RH WIND       PRES   REMARKS
BURLINGTON     PTCLDY    -2  -8  76 CALM      30.63F
FAIRFIELD *    MOCLDY    -4 -11  71 SE5       30.62S WCI -15
FORT MADISON * CLEAR     -2  -8  78 E3        30.63F
KEOKUK *       CLOUDY     1  -4  78 E5        30.62F WCI  -8
OSKALOOSA *      N/A     -2  -8  78 SE8       30.60F WCI -17
CENTERVILLE *  CLEAR      1  -2  85 E5        30.57F WCI  -8
OTTUMWA        PTCLDY    -3  -8  79 SE7       30.59F WCI -16
WASHINGTON *   PTCLDY    -8  -9  92 SE5       30.63F WCI -19
$$

ABBREVIATIONS USED IN REMARKS
   TC - TEMPERATURES IN CELSIUS
  WCI - WIND CHILL INDEX
   HX - HEAT INDEX
  VSB - VISIBILITY
$$



USA.gov is the U.S. government's official web portal to all federal, state and local government web resources and services.